This is the latest recevied weather packets stored in our database for station/object WX7FGZ-3. If no packets are shown the sender has not sent any weather packets the latest 10 day(s).
| Time | Temp. | Humidity | Pressure | Rain* | Wind** | Luminosity | Snow |
|---|---|---|---|---|---|---|---|
| 1778037082 | 3.33° C | 85% | 1008.1 hPa | 0 mm | - | - | - |
| 1778036781 | 3.33° C | 86% | 1008.1 hPa | 0 mm | - | - | - |
| 1778036482 | 3.33° C | 85% | 1007.7 hPa | 0 mm | - | - | - |
| 1778035881 | 3.89° C | 83% | 1007.5 hPa | 0 mm | - | - | - |
| 1778035280 | 4.44° C | 80% | 1007.6 hPa | 0 mm | - | - | - |
| 1778034680 | 5° C | 77% | 1006.9 hPa | 0 mm | - | - | - |
| 1778034379 | 5° C | 74% | 1006.6 hPa | 0 mm | - | - | - |
| 1778034079 | 5° C | 73% | 1006.8 hPa | 0 mm | - | - | - |
| 1778033779 | 5.56° C | 70% | 1006.8 hPa | 0 mm | - | - | - |
| 1778033478 | 5.56° C | 68% | 1006.6 hPa | 0 mm | - | - | - |
| 1778033178 | 5° C | 69% | 1006.7 hPa | 0 mm | - | - | - |
| 1778032878 | 5° C | 70% | 1006.7 hPa | 0 mm | - | - | - |
| 1778032578 | 5° C | 69% | 1006.7 hPa | 0 mm | - | - | - |
| 1778032277 | 5° C | 71% | 1006.5 hPa | 0 mm | - | - | - |
| 1778031677 | 5.56° C | 70% | 1006.5 hPa | 0 mm | - | - | - |
| 1778031377 | 6.11° C | 68% | 1006.5 hPa | 0 mm | - | - | - |
| 1778031076 | 6.11° C | 67% | 1006.5 hPa | 0 mm | - | - | - |
| 1778030776 | 6.11° C | 66% | 1006.4 hPa | 0 mm | - | - | - |
| 1778030476 | 6.67° C | 64% | 1006.3 hPa | 0 mm | - | - | - |
| 1778029875 | 6.67° C | 62% | 1006.1 hPa | 0 mm | - | - | - |
| 1778029575 | 7.22° C | 61% | 1005.9 hPa | 0 mm | - | - | - |
| 1778028974 | 7.22° C | 60% | 1005.5 hPa | 0 mm | - | - | - |
| 1778028674 | 7.78° C | 58% | 1005.6 hPa | 0 mm | - | - | - |
| 1778027773 | 8.89° C | 50% | 1005.2 hPa | 0 mm | - | - | - |
| 1778027473 | 8.89° C | 49% | 1005 hPa | 0 mm | - | - | - |
* Rain latest hour (hover to see other rain measurements)
** Current wind speed in m/s (hover to see current wind gust speed)